Location: Geyikbay?r?
(36.8756°N, 30.4583°E)
Time: 07:41:20
(UTC+00:00)

SL-8 R/B - Pass Details

Date: 05 August 2024
Orbit: 651 x 661 km, 48.4° (Epoch: 10 September)

Event Time Altitude Azimuth Distance (km) Brightness Sun altitude
Rises 19:28:47 0° 307° (NW) 2,984 8.4 -25.1°
Reaches altitude 10° 19:31:11 10° 312° (NW) 2,072 7.3 -25.5°
Maximum altitude 19:35:52 53° 30° (NNE) 809 4.1 -26.1°
Enters shadow 19:35:55 53° 32° (NNE) 809 4.1 -26.1°
